Live-Position
3D-Globus wird geladen...
Über Starlink 2443
Group: 3 satellites
Beschreibung wird geladen...
Nächste Überflüge
Passes for default location (London). Set your location on the main map for personalized predictions.
Höhenverlauf
Loading altitude history...
No altitude history available
Zweizeiliger Elementsatz
1 48107U 21027R 26124.67417448 .00010236 00000-0 34096-3 0 9995
2 48107 53.1615 252.4898 0001310 81.2205 278.8945 15.31719390281254
Epoch: 4. Mai 2026 •
Age: 28 hours
Aktueller Status
Höhe 477.0 km
Geschwindigkeit 7.63 km/s
Subsatellitenpunkt -21.51°S,
62.51°E
Startdatum 7. Apr. 2021
Alter 5 years
Typ internet
Startgruppe
Falcon 9 •
Launch 23 •
47 satellites
Starlink 2404
48093
Starlink 2412 48094
Starlink 2414 48095
Starlink 2417 48096
Starlink 2418 48097
Starlink 2421 48098
Starlink 2428 48099
Starlink 2430 48100
Starlink 2436 48101
Starlink 2439 48104
Starlink 2440 48105
Starlink 2442 48106
Starlink 2448 48111
Starlink 2449 48112
Starlink 2450 48113
Starlink 2452 48115
Starlink 2454 48116
Starlink 2455 48117
Starlink 2459 48119
Starlink 2460 48120
...and 26 more
Technische Details
Klassifizierung Payload
Masse 260.00 kg
Trockenmasse 248.00 kg
Gesamtmasse 260.00 kg
Länge 0.20 m
Durchmesser 2.80 m
Spannweite 9.00 m
Form Box + pan
Hersteller SPXS
Bus-Typ Starlink
Phasenstatus In Orbit
Besitzer/Staat SPXS/US
Most Searched
Loading...